Flag for U.S.A. Weather past 2 weeks in Bridgeport, Connecticut, U.S.A.

Now
24 °F

Light snow. Ice fog.


Feels Like: 8 °F
Forecast: 17 / 25 °F
Wind: 25 mph from Northeast

Location: Sikorsky Memorial Airport

Current Time: Jan 26, 2015 at 11:32:13 PM

Latest Report: Jan 26, 2015 at 10:52 PM


Visibility: 1 mi

Pressure: 29.70 "Hg

Humidity: 88%

Dew point: 21 °F

Location of BridgeportLocation

Historic Weather in Bridgeport — Graph

°F

Bridgeport temperature yesterday

Maximum temperature yesterday: 40 °F (at 11:52 AM)
Minimum temperature yesterday: 24 °F (at 11:52 PM)
Average temperature yesterday: 34 °F

Past Weeks' High & Low Weather Summary

 TemperatureHumidityPressure
High47 °F (Jan 12, 1:52 AM)100% (Jan 18, 11:57 AM)30.64 "Hg (Jan 18, 11:57 AM)
Low13 °F (Jan 17, 5:52 AM)27% (Jan 17, 12:52 PM)29.22 "Hg (Jan 24, 3:52 PM)
Average30 °F64%30.06 "Hg
* Reported Jan 11 9:52 PM — Jan 26 9:52 PM, Bridgeport, Weather by CustomWeather, © 2014

Note: Actual official high and low records may vary slightly from our data, if they occured in-between our weather recording intervals... More about our weather records

Advertising

Bridgeport weather history for previous 24 hours

 ConditionsComfort  
Time TempWeatherWind HumidityBarometerVisibility
9:52 PM
Jan 26
24 °FLight snow. Ice fog.24 mph88%29.76 "Hg1 mi
8:52 PM24 °FLight snow. Ice fog.23 mph88%29.80 "Hg2 mi
7:52 PM24 °FLight snow. Ice fog.22 mph88%29.83 "Hg2 mi
6:52 PM25 °FLight snow. Ice fog.24 mph85%29.87 "Hg2 mi
5:52 PM24 °FLight snow. Ice fog.24 mph88%29.88 "Hg1 mi
4:52 PM24 °FLight snow. Ice fog.21 mph84%29.90 "Hg1 mi
3:52 PM23 °FLight snow. Ice fog.20 mph85%29.90 "Hg1 mi
2:52 PM23 °FLight snow. Ice fog.18 mph85%29.89 "Hg1 mi
1:52 PM22 °FLight snow. Mostly cloudy.14 mph78%29.92 "Hg1 mi
12:52 PM21 °FOvercast.17 mph78%29.94 "Hg10 mi
11:52 AM20 °FLight snow. Overcast.15 mph82%30.00 "Hg4 mi
10:52 AM19 °FLight snow. Mostly cloudy.17 mph74%30.04 "Hg1 mi
9:52 AM20 °FOvercast.13 mph65%30.07 "Hg10 mi
8:52 AM21 °FMostly cloudy.14 mph57%30.05 "Hg10 mi
7:52 AM21 °FOvercast.15 mph55%30.05 "Hg10 mi
6:52 AM21 °FMostly cloudy.13 mph55%30.05 "Hg10 mi
5:52 AM22 °FMostly cloudy.15 mph55%30.05 "Hg10 mi
4:52 AM22 °FOvercast.12 mph55%30.05 "Hg10 mi
3:52 AM23 °FOvercast.10 mph50%30.05 "Hg10 mi
2:52 AM23 °FOvercast.7 mph50%30.05 "Hg10 mi
1:52 AM23 °FOvercast.10 mph50%30.03 "Hg10 mi
12:52 AM23 °FOvercast.14 mph50%30.02 "Hg10 mi
11:52 PM
Jan 25
24 °FPassing clouds.16 mph46%30.01 "Hg10 mi
Weather by CustomWeather, © 2014

See weather overviewHow to use our weather pages